| time (UTC) | temp C | wind direction | speed KPH | gust KPH | rain 1hr cm | rain 24hr cm | rain mn cm | humidity % | barometer mb |
| 20260505173307 | 2 | 270 | 24.1 | 0.0 | 0.00 | 0.00 | 0.00 | 80 | 1005.0 |
| 20260505170307 | 3 | 280 | 16.1 | 0.0 | 0.00 | 0.00 | 0.00 | 80 | 1005.0 |
| 20260505163307 | 5 | 260 | 19.3 | 0.0 | 0.00 | 0.00 | 0.00 | 70 | 1005.0 |
| 20260505160307 | 5 | 240 | 22.5 | 0.0 | 0.00 | 0.00 | 0.00 | 70 | 1005.0 |
| 20260505153307 | 5 | 230 | 20.9 | 0.0 | 0.00 | 0.00 | 0.00 | 75 | 1005.0 |
| 20260505150306 | 2 | 280 | 24.1 | 0.0 | 0.00 | 0.00 | 0.00 | 80 | 1005.0 |
| 20260505140307 | 5 | 260 | 22.5 | 41.8 | 0.00 | 0.00 | 0.00 | 65 | 1004.0 |
| 20260505130307 | 5 | 240 | 20.9 | 0.0 | 0.00 | 0.00 | 0.00 | 65 | 1005.0 |
| 20260505123306 | 5 | 250 | 19.3 | 0.0 | 0.00 | 0.00 | 0.00 | 70 | 1004.0 |
| 20260505120306 | 5 | 250 | 19.3 | 0.0 | 0.00 | 0.00 | 0.00 | 60 | 1004.0 |
| 20260505113307 | 5 | 250 | 24.1 | 0.0 | 0.00 | 0.00 | 0.00 | 70 | 1004.0 |
| 20260505110307 | 5 | 250 | 22.5 | 0.0 | 0.00 | 0.00 | 0.00 | 70 | 1004.0 |
| 20260505100307 | 5 | 270 | 25.7 | 0.0 | 0.00 | 0.00 | 0.00 | 70 | 1004.0 |
| 20260505093306 | 5 | 240 | 16.1 | 0.0 | 0.00 | 0.00 | 0.00 | 65 | 1003.0 |
| 20260505090307 | 5 | 220 | 14.5 | 0.0 | 0.00 | 0.00 | 0.00 | 70 | 1003.0 |
| 20260505083306 | 2 | 250 | 24.1 | 0.0 | 0.00 | 0.00 | 0.00 | 74 | 1003.0 |
| 20260505080307 | 2 | 230 | 19.3 | 0.0 | 0.00 | 0.00 | 0.00 | 74 | 1003.0 |
| 20260505073306 | 2 | 210 | 14.5 | 0.0 | 0.00 | 0.00 | 0.00 | 80 | 1003.0 |
| 20260505070307 | 3 | 250 | 12.9 | 0.0 | 0.00 | 0.00 | 0.00 | 75 | 1003.0 |
| 20260505063306 | 5 | 110 | 4.8 | 0.0 | 0.00 | 0.00 | 0.00 | 75 | 1002.0 |
| 20260505060306 | 3 | 100 | 4.8 | 0.0 | 0.00 | 0.00 | 0.00 | 80 | 1002.0 |
| 20260505053309 | 1 | 0 | 0.0 | 0.0 | 0.00 | 0.00 | 0.00 | 86 | 1002.0 |
| 20260505050306 | 0 | 330 | 8.0 | 0.0 | 0.00 | 0.00 | 0.00 | 93 | 1002.0 |
| 20260505040306 | 1 | 190 | 11.3 | 0.0 | 0.00 | 0.00 | 0.00 | 86 | 1002.0 |
| 20260505033306 | 0 | 210 | 4.8 | 0.0 | 0.00 | 0.00 | 0.00 | 93 | 1002.0 |
| 20260505030306 | 0 | 190 | 4.8 | 0.0 | 0.00 | 0.00 | 0.00 | 93 | 1002.0 |
| 20260505023306 | 0 | 210 | 1.6 | 0.0 | 0.00 | 0.00 | 0.00 | 93 | 1002.0 |
| 20260505020306 | 0 | 350 | 4.8 | 0.0 | 0.00 | 0.00 | 0.00 | 93 | 1002.0 |
| 20260505013306 | 1 | 350 | 20.9 | 0.0 | 0.00 | 0.00 | 0.00 | 86 | 1002.0 |
| 20260505010306 | 2 | 310 | 12.9 | 0.0 | 0.00 | 0.00 | 0.00 | 74 | 1002.0 |
| 20260505003306 | 1 | 230 | 4.8 | 0.0 | 0.00 | 0.00 | 0.00 | 74 | 1002.0 |
| 20260505000306 | 2 | 270 | 3.2 | 0.0 | 0.00 | 0.00 | 0.00 | 69 | 1002.0 |
| 20260504233306 | 3 | 280 | 3.2 | 0.0 | 0.00 | 0.00 | 0.00 | 64 | 1001.0 |
| 20260504230307 | 3 | 310 | 4.8 | 0.0 | 0.00 | 0.00 | 0.00 | 64 | 1002.0 |
| 20260504223307 | 3 | 320 | 4.8 | 0.0 | 0.00 | 0.00 | 0.00 | 60 | 1002.0 |
| 20260504220327 | 3 | 320 | 11.3 | 0.0 | 0.00 | 0.00 | 0.00 | 64 | 1001.0 |
| 20260504213308 | 3 | 330 | 14.5 | 0.0 | 0.00 | 0.00 | 0.00 | 64 | 1001.0 |
| 20260504210306 | 3 | 330 | 14.5 | 0.0 | 0.00 | 0.00 | 0.00 | 75 | 1001.0 |
| 20260504203309 | 3 | 310 | 12.9 | 0.0 | 0.00 | 0.00 | 0.00 | 75 | 1001.0 |
| 20260504200311 | 3 | 350 | 19.3 | 0.0 | 0.00 | 0.00 | 0.00 | 69 | 1001.0 |
| 20260504193311 | 2 | 0 | 3.2 | 0.0 | 0.00 | 0.00 | 0.00 | 86 | 1001.0 |
| 20260504190310 | 2 | 0 | 3.2 | 0.0 | 0.00 | 0.00 | 0.00 | 86 | 1000.0 |
| 20260504183308 | 2 | 350 | 4.8 | 0.0 | 0.00 | 0.00 | 0.00 | 86 | 1000.0 |
| 20260504180307 | 2 | 20 | 9.7 | 0.0 | 0.00 | 0.00 | 0.00 | 86 | 1000.0 |